sat.trackr.live / text

‹ back to catalog

STARLINK-4137

NORAD 53031 · 2022-076AX

PAYLOAD ACTIVE UNKNOWN

§ Identity

Operator
Country
US
Launch date
2022-07-07
Launch site
AFETR
Launch vehicle
Mass (kg)
RCS (m²)

Purposes: comms

External: N2YO · Heavens-Above · Gunter

§ Orbital elements

Epoch: 2026-09-20T00:05:04.437312Z

Period
93.79 min
Inclination
53.1593°
Eccentricity
0.0001266
Mean motion
15.35400271 rev/d
Perigee alt
458.9 km
Apogee alt
460.6 km
Semi-major
6,837.9 km
B*
1.7138e-5
RAAN
272.3995°
Arg perigee
91.7708°
Mean anomaly
268.3440°
Rev number
23,258

§ Raw data

STARLINK-41371 53031U 22076AX  26263.00352358  .00000217  00000+0  17138-4 0  99972 53031  53.1593 272.3995 0001266  91.7708 268.3440 15.35400271232589

JSON: /api/v1/satellites/53031 · /tle

For live sub-satellite position, see the globe view (requires WebGL).

§ Visibility from observer

Set your observer location to see the next 7 days of passes ≥ 10°. The values pass through the URL so the page stays shareable.

No JS? Fill the form by hand. The geolocation button needs JavaScript.